Time,TemperatureF,DewpointF,PressureIn,WindDirection,WindDirectionDegrees,WindSpeedMPH,WindSpeedGustMPH,Humidity,HourlyPrecipIn,Conditions,Clouds,dailyrainin,SolarRadiationWatts/m^2,SoftwareType,DateUTC
2013-03-03 00:00:00,34.6,25.6,29.49,NW,314,3.8,10.1,69,0.00,,,-99.99,1.0,HOBO +U30 +Weather +,2013-03-03 05:00:00,
2013-03-03 00:15:00,34.5,25.5,29.50,NNW,329,4.5,8.7,69,0.00,,,-99.99,1.0,HOBO +U30 +Weather +,2013-03-03 05:15:00,
2013-03-03 00:30:00,34.4,25.5,29.50,NNW,333,4.5,10.7,69,0.00,,,-99.99,1.0,HOBO +U30 +Weather +,2013-03-03 05:30:00,
2013-03-03 00:45:00,34.3,25.5,29.50,NNW,337,4.3,9.6,70,0.00,,,-99.99,1.0,HOBO +U30 +Weather +,2013-03-03 05:45:00,
2013-03-03 01:00:00,34.2,25.6,29.50,NW,323,3.8,9.2,70,0.00,,,-99.99,1.0,HOBO +U30 +Weather +,2013-03-03 06:00:00,
2013-03-03 01:30:00,33.8,25.5,29.49,NNW,327,3.4,8.7,71,0.00,,,-99.99,1.0,HOBO +U30 +Weather +,2013-03-03 06:30:00,
2013-03-03 01:45:00,33.7,25.5,29.49,NW,312,3.8,7.4,71,0.00,,,-99.99,1.0,HOBO +U30 +Weather +,2013-03-03 06:45:00,
2013-03-03 02:00:00,33.5,25.5,29.49,NW,312,4.3,8.7,72,0.00,,,-99.99,1.0,HOBO +U30 +Weather +,2013-03-03 07:00:00,
2013-03-03 02:15:00,33.3,25.5,29.49,WNW,302,4.3,7.2,72,0.00,,,-99.99,1.0,HOBO +U30 +Weather +,2013-03-03 07:15:00,
2013-03-03 02:30:00,33.2,25.5,29.49,NW,309,2.9,6.3,73,0.00,,,-99.99,1.0,HOBO +U30 +Weather +,2013-03-03 07:30:00,
2013-03-03 02:45:00,33.1,25.4,29.48,NW,307,4.3,10.7,73,0.00,,,-99.99,1.0,HOBO +U30 +Weather +,2013-03-03 07:45:00,
2013-03-03 03:00:00,33.0,25.4,29.48,NW,312,3.8,7.8,73,0.00,,,-99.99,1.0,HOBO +U30 +Weather +,2013-03-03 08:00:00,
2013-03-03 03:15:00,33.0,25.3,29.48,NW,319,4.3,10.3,73,0.00,,,-99.99,1.0,HOBO +U30 +Weather +,2013-03-03 08:15:00,
2013-03-03 03:30:00,32.9,25.3,29.48,NW,319,3.8,7.8,73,0.00,,,-99.99,1.0,HOBO +U30 +Weather +,2013-03-03 08:30:00,
2013-03-03 03:45:00,32.9,25.2,29.48,NW,326,4.9,10.1,72,0.00,,,-99.99,1.0,HOBO +U30 +Weather +,2013-03-03 08:45:00,
2013-03-03 04:00:00,32.9,25.2,29.48,NW,323,4.5,11.6,72,0.00,,,-99.99,1.0,HOBO +U30 +Weather +,2013-03-03 09:00:00,
2013-03-03 04:15:00,32.8,25.2,29.48,NW,316,4.3,7.8,73,0.00,,,-99.99,1.0,HOBO +U30 +Weather +,2013-03-03 09:15:00,
2013-03-03 04:30:00,32.8,25.2,29.48,NW,323,4.3,7.4,73,0.00,,,-99.99,1.0,HOBO +U30 +Weather +,2013-03-03 09:30:00,
2013-03-03 04:45:00,32.8,25.2,29.48,NW,317,4.3,7.8,73,0.00,,,-99.99,1.0,HOBO +U30 +Weather +,2013-03-03 09:45:00,
2013-03-03 05:00:00,32.8,25.2,29.48,NW,319,3.8,9.6,73,0.00,,,-99.99,1.0,HOBO +U30 +Weather +,2013-03-03 10:00:00,
2013-03-03 05:15:00,32.8,25.1,29.48,NW,319,4.5,9.6,72,0.00,,,-99.99,1.0,HOBO +U30 +Weather +,2013-03-03 10:15:00,
2013-03-03 05:30:00,32.8,25.1,29.48,NW,320,4.3,8.7,72,0.00,,,-99.99,1.0,HOBO +U30 +Weather +,2013-03-03 10:30:00,
2013-03-03 05:45:00,32.8,25.2,29.48,NW,320,3.4,6.7,73,0.00,,,-99.99,1.0,HOBO +U30 +Weather +,2013-03-03 10:45:00,
2013-03-03 06:00:00,32.7,25.2,29.48,WNW,303,3.8,7.4,73,0.00,,,-99.99,1.0,HOBO +U30 +Weather +,2013-03-03 11:00:00,
2013-03-03 06:15:00,32.7,25.1,29.48,NW,313,4.3,7.8,73,0.00,,,-99.99,1.0,HOBO +U30 +Weather +,2013-03-03 11:15:00,
2013-03-03 06:30:00,32.6,25.2,29.49,NW,307,3.4,6.7,73,0.00,,,-99.99,4.0,HOBO +U30 +Weather +,2013-03-03 11:30:00,
2013-03-03 06:45:00,32.6,25.3,29.49,WNW,303,3.8,7.2,74,0.00,,,-99.99,14.0,HOBO +U30 +Weather +,2013-03-03 11:45:00,
2013-03-03 07:00:00,32.7,25.3,29.49,NW,313,4.3,7.4,73,0.00,,,-99.99,38.0,HOBO +U30 +Weather +,2013-03-03 12:00:00,
2013-03-03 07:15:00,32.8,25.3,29.49,NW,321,4.5,8.3,73,0.00,,,-99.99,48.0,HOBO +U30 +Weather +,2013-03-03 12:15:00,
2013-03-03 07:30:00,33.0,25.4,29.49,NW,313,4.5,8.3,73,0.00,,,-99.99,56.0,HOBO +U30 +Weather +,2013-03-03 12:30:00,
2013-03-03 07:45:00,33.1,25.6,29.49,NW,307,3.4,7.4,73,0.00,,,-99.99,76.0,HOBO +U30 +Weather +,2013-03-03 12:45:00,
2013-03-03 08:00:00,33.1,25.6,29.49,NW,324,4.5,9.2,73,0.00,,,-99.99,86.0,HOBO +U30 +Weather +,2013-03-03 13:00:00,
2013-03-03 08:15:00,33.3,25.9,29.49,NNW,334,4.5,8.3,73,0.00,,,-99.99,92.0,HOBO +U30 +Weather +,2013-03-03 13:15:00,
2013-03-03 08:30:00,33.2,26.0,29.49,NNW,334,5.8,10.3,74,0.00,,,-99.99,134.0,HOBO +U30 +Weather +,2013-03-03 13:30:00,
2013-03-03 08:45:00,33.9,26.5,29.49,NW,320,4.5,8.7,74,0.00,,,-99.99,216.0,HOBO +U30 +Weather +,2013-03-03 13:45:00,
2013-03-03 09:00:00,35.1,27.3,29.48,NW,320,4.3,7.2,73,0.00,,,-99.99,243.0,HOBO +U30 +Weather +,2013-03-03 14:00:00,
2013-03-03 09:15:00,35.2,27.1,29.48,NW,321,4.3,7.8,72,0.00,,,-99.99,259.0,HOBO +U30 +Weather +,2013-03-03 14:15:00,
2013-03-03 09:30:00,35.6,27.2,29.48,NNW,343,4.3,7.8,71,0.00,,,-99.99,296.0,HOBO +U30 +Weather +,2013-03-03 14:30:00,
2013-03-03 09:45:00,35.4,27.2,29.47,NW,326,4.5,9.6,71,0.00,,,-99.99,283.0,HOBO +U30 +Weather +,2013-03-03 14:45:00,
2013-03-03 10:00:00,36.2,27.8,29.47,NW,312,4.5,10.3,71,0.00,,,-99.99,356.0,HOBO +U30 +Weather +,2013-03-03 15:00:00,
2013-03-03 10:15:00,37.0,28.0,29.47,WNW,303,4.3,9.6,69,0.00,,,-99.99,328.0,HOBO +U30 +Weather +,2013-03-03 15:15:00,
2013-03-03 10:30:00,37.6,28.4,29.46,West,279,4.9,9.6,69,0.00,,,-99.99,397.0,HOBO +U30 +Weather +,2013-03-03 15:30:00,
2013-03-03 10:45:00,38.7,29.2,29.46,West,281,4.9,10.1,68,0.00,,,-99.99,567.0,HOBO +U30 +Weather +,2013-03-03 15:45:00,
2013-03-03 11:00:00,38.3,28.4,29.45,NW,313,4.9,10.3,67,0.00,,,-99.99,517.0,HOBO +U30 +Weather +,2013-03-03 16:00:00,
2013-03-03 11:15:00,38.9,29.0,29.44,NW,306,5.4,10.7,67,0.00,,,-99.99,547.0,HOBO +U30 +Weather +,2013-03-03 16:15:00,
2013-03-03 11:30:00,38.9,28.7,29.44,NNW,331,4.9,10.3,66,0.00,,,-99.99,537.0,HOBO +U30 +Weather +,2013-03-03 16:30:00,
2013-03-03 11:45:00,39.5,29.5,29.44,NW,323,5.8,12.5,66,0.00,,,-99.99,262.0,HOBO +U30 +Weather +,2013-03-03 16:45:00,
2013-03-03 12:00:00,40.0,29.6,29.44,NW,326,5.8,11.6,66,0.00,,,-99.99,784.0,HOBO +U30 +Weather +,2013-03-03 17:00:00,
2013-03-03 12:15:00,40.0,29.4,29.43,NW,316,4.3,10.1,65,0.00,,,-99.99,294.0,HOBO +U30 +Weather +,2013-03-03 17:15:00,
2013-03-03 12:30:00,39.4,29.9,29.44,NNW,337,5.4,9.6,68,0.00,,,-99.99,239.0,HOBO +U30 +Weather +,2013-03-03 17:30:00,
2013-03-03 12:45:00,40.6,30.9,29.43,NNW,341,4.9,10.1,68,0.00,,,-99.99,359.0,HOBO +U30 +Weather +,2013-03-03 17:45:00,
2013-03-03 13:00:00,41.0,31.0,29.42,NW,324,4.9,13.0,67,0.00,,,-99.99,333.0,HOBO +U30 +Weather +,2013-03-03 18:00:00,
2013-03-03 13:15:00,40.9,30.7,29.42,NNW,330,4.9,10.7,66,0.00,,,-99.99,479.0,HOBO +U30 +Weather +,2013-03-03 18:15:00,
2013-03-03 13:30:00,41.0,31.0,29.41,North,352,6.3,11.2,67,0.00,,,-99.99,437.0,HOBO +U30 +Weather +,2013-03-03 18:30:00,
2013-03-03 13:45:00,41.1,31.0,29.41,North,352,5.4,11.2,67,0.00,,,-99.99,309.0,HOBO +U30 +Weather +,2013-03-03 18:45:00,
2013-03-03 14:00:00,41.0,30.8,29.41,NNW,337,4.5,8.3,66,0.00,,,-99.99,217.0,HOBO +U30 +Weather +,2013-03-03 19:00:00,
2013-03-03 14:15:00,40.6,30.6,29.41,NW,307,4.9,10.7,67,0.00,,,-99.99,258.0,HOBO +U30 +Weather +,2013-03-03 19:15:00,
2013-03-03 14:30:00,41.0,31.1,29.41,NNW,340,4.9,10.3,67,0.00,,,-99.99,351.0,HOBO +U30 +Weather +,2013-03-03 19:30:00,
2013-03-03 15:30:00,40.3,31.0,29.41,NW,321,4.5,9.6,69,0.00,,,-99.99,153.0,HOBO +U30 +Weather +,2013-03-03 20:30:00,
2013-03-03 15:45:00,40.4,30.9,29.41,NNW,337,4.3,8.7,68,0.00,,,-99.99,119.0,HOBO +U30 +Weather +,2013-03-03 20:45:00,
2013-03-03 16:00:00,40.2,30.9,29.41,NW,309,4.5,9.2,68,0.00,,,-99.99,111.0,HOBO +U30 +Weather +,2013-03-03 21:00:00,
2013-03-03 16:15:00,39.8,31.4,29.42,NNW,334,5.4,10.1,71,0.00,,,-99.99,109.0,HOBO +U30 +Weather +,2013-03-03 21:15:00,
2013-03-03 16:30:00,39.0,31.1,29.42,NW,320,5.8,10.1,73,0.00,,,-99.99,62.0,HOBO +U30 +Weather +,2013-03-03 21:30:00,
2013-03-03 16:45:00,38.7,31.3,29.42,NW,305,4.5,9.2,74,0.00,,,-99.99,36.0,HOBO +U30 +Weather +,2013-03-03 21:45:00,
2013-03-03 17:00:00,38.1,31.0,29.43,NW,309,4.9,10.7,75,0.00,,,-99.99,18.0,HOBO +U30 +Weather +,2013-03-03 22:00:00,
2013-03-03 17:15:00,37.5,31.2,29.43,NW,314,5.4,11.6,77,0.00,,,-99.99,14.0,HOBO +U30 +Weather +,2013-03-03 22:15:00,
2013-03-03 17:30:00,37.1,31.5,29.44,NW,305,4.9,10.3,80,0.00,,,-99.99,3.0,HOBO +U30 +Weather +,2013-03-03 22:30:00,
2013-03-03 17:45:00,36.4,31.5,29.44,WNW,298,4.9,12.1,82,0.00,,,-99.99,1.0,HOBO +U30 +Weather +,2013-03-03 22:45:00,
2013-03-03 18:00:00,35.8,31.4,29.44,NW,307,5.4,10.1,84,0.00,,,-99.99,1.0,HOBO +U30 +Weather +,2013-03-03 23:00:00,
2013-03-03 18:15:00,35.5,31.4,29.44,WNW,296,4.9,9.2,84,0.00,,,-99.99,1.0,HOBO +U30 +Weather +,2013-03-03 23:15:00,
2013-03-03 18:30:00,35.0,31.3,29.45,WNW,282,4.5,9.2,86,0.00,,,-99.99,1.0,HOBO +U30 +Weather +,2013-03-03 23:30:00,
2013-03-03 18:45:00,34.7,31.4,29.45,West,274,4.9,9.2,87,0.00,,,-99.99,1.0,HOBO +U30 +Weather +,2013-03-03 23:45:00,
2013-03-03 19:00:00,34.3,31.4,29.45,West,274,4.5,8.7,89,0.00,,,-99.99,1.0,HOBO +U30 +Weather +,2013-03-04 00:00:00,
2013-03-03 19:15:00,34.5,31.7,29.45,WNW,286,4.3,7.8,89,0.00,,,-99.99,1.0,HOBO +U30 +Weather +,2013-03-04 00:15:00,
2013-03-03 19:30:00,34.3,31.5,29.46,WNW,291,4.9,9.6,89,0.00,,,-99.99,1.0,HOBO +U30 +Weather +,2013-03-04 00:30:00,
2013-03-03 19:45:00,33.9,31.4,29.46,WNW,292,4.9,9.6,90,0.00,,,-99.99,1.0,HOBO +U30 +Weather +,2013-03-04 00:45:00,
2013-03-03 20:00:00,33.8,31.4,29.46,WNW,302,4.5,10.1,90,0.00,,,-99.99,1.0,HOBO +U30 +Weather +,2013-03-04 01:00:00,
2013-03-03 20:15:00,33.6,31.3,29.47,WNW,291,3.8,7.8,91,0.00,,,-99.99,1.0,HOBO +U30 +Weather +,2013-03-04 01:15:00,
2013-03-03 20:30:00,33.4,31.2,29.47,WNW,286,4.3,10.1,91,0.00,,,-99.99,1.0,HOBO +U30 +Weather +,2013-03-04 01:30:00,
2013-03-03 20:45:00,33.2,31.1,29.47,West,281,4.3,10.3,91,0.00,,,-99.99,1.0,HOBO +U30 +Weather +,2013-03-04 01:45:00,
2013-03-03 21:00:00,33.0,30.9,29.47,WNW,286,4.5,9.2,91,0.00,,,-99.99,1.0,HOBO +U30 +Weather +,2013-03-04 02:00:00,
2013-03-03 21:15:00,32.7,30.6,29.47,West,279,4.5,9.6,91,0.00,,,-99.99,1.0,HOBO +U30 +Weather +,2013-03-04 02:15:00,
2013-03-03 21:30:00,32.6,30.6,29.47,WNW,286,4.5,8.7,92,0.00,,,-99.99,1.0,HOBO +U30 +Weather +,2013-03-04 02:30:00,
2013-03-03 21:45:00,32.5,30.6,29.47,WNW,282,4.3,8.3,92,0.00,,,-99.99,1.0,HOBO +U30 +Weather +,2013-03-04 02:45:00,
2013-03-03 22:00:00,32.5,30.5,29.47,WNW,285,3.8,9.2,92,0.00,,,-99.99,1.0,HOBO +U30 +Weather +,2013-03-04 03:00:00,
2013-03-03 22:15:00,32.5,30.5,29.46,West,278,3.4,6.7,92,0.00,,,-99.99,1.0,HOBO +U30 +Weather +,2013-03-04 03:15:00,
2013-03-03 22:30:00,32.6,30.5,29.46,WNW,285,3.4,6.7,91,0.00,,,-99.99,1.0,HOBO +U30 +Weather +,2013-03-04 03:30:00,
2013-03-03 22:45:00,32.8,30.4,29.46,WNW,289,2.9,5.8,90,0.00,,,-99.99,1.0,HOBO +U30 +Weather +,2013-03-04 03:45:00,
2013-03-03 23:00:00,32.9,30.2,29.46,WNW,298,2.9,7.2,89,0.00,,,-99.99,1.0,HOBO +U30 +Weather +,2013-03-04 04:00:00,
2013-03-03 23:15:00,33.1,30.1,29.46,WNW,295,2.9,6.3,88,0.00,,,-99.99,1.0,HOBO +U30 +Weather +,2013-03-04 04:15:00,
2013-03-03 23:30:00,33.5,29.8,29.46,WNW,299,4.3,9.2,86,0.00,,,-99.99,1.0,HOBO +U30 +Weather +,2013-03-04 04:30:00,
2013-03-03 23:45:00,33.6,28.8,29.45,NW,309,4.9,10.3,82,0.00,,,-99.99,1.0,HOBO +U30 +Weather +,2013-03-04 04:45:00,